Theta_e
288 288 287 287 286 286 285 285 284 284 284 284 283 282 282 283 283 282 281 280 279 278 277 277 277 277 276 276 276 276 276 276 276 276 276 275 276 276 276 276 276 276 277 277 277 277 277 277 277 277 277 277 277 277 277 277 278 278 278 279 279 279 279 279 279 279 279 280 281 281 281 281 281 281 281 282 282 283 283 284 285 286 287 290 292
288 287 287 286 285 285 284 284 284 283 283 282 282 282 282 282 282 281 280 279 278 277 277 276 276 276 276 276 275 275 275 275 275 275 274 274 275 275 275 275 275 275 275 275 275 275 276 276 276 276 276 276 276 276 276 276 276 277 277 277 278 278 278 278 278 279 279 280 280 280 280 279 279 280 280 281 282 283 284 285 286 287 289 291 293
287 287 286 285 285 284 284 283 283 282 282 281 281 282 282 281 281 280 279 278 277 276 276 276 275 275 275 274 274 274 274 274 274 273 273 273 273 273 273 273 273 273 273 274 274 274 274 274 274 274 274 274 274 274 274 274 275 275 276 276 277 277 277 277 278 278 279 279 279 279 279 278 278 279 279 280 281 282 283 284 286 288 290 292 293
287 286 285 284 284 283 283 282 282 281 281 280 281 281 281 280 280 279 277 277 276 276 276 275 275 274 274 273 273 273 273 273 273 273 272 272 272 272 272 272 272 272 272 272 272 272 273 273 273 273 273 273 273 273 273 273 273 274 274 275 275 275 276 276 277 278 278 278 278 278 278 278 278 278 279 280 281 281 282 283 284 287 289 292 292
286 285 284 283 283 282 282 281 281 280 280 280 280 281 280 279 278 277 276 276 275 275 275 274 274 273 272 272 272 272 272 272 272 272 271 271 271 271 271 271 271 271 271 271 272 272 272 272 272 272 272 272 272 272 272 272 273 273 273 274 274 274 275 276 276 277 277 277 277 277 277 277 277 278 278 279 281 282 283 284 285 287 289 291 292
285 284 283 283 282 281 281 280 280 279 279 280 280 280 279 278 276 276 276 275 275 275 274 274 273 272 272 272 272 271 271 271 271 271 271 271 271 271 271 271 271 271 271 271 271 272 272 272 272 272 272 272 272 272 272 272 273 273 273 273 274 274 274 275 275 276 276 277 277 277 277 277 277 277 278 280 281 282 283 284 286 287 289 291 293
284 283 282 282 281 280 280 280 279 279 279 280 279 279 278 277 276 276 276 275 275 275 275 274 273 272 271 271 271 271 271 271 271 271 271 271 271 271 271 271 271 271 271 272 272 272 272 272 272 272 272 272 272 272 272 272 273 273 273 274 274 274 274 275 275 275 276 276 276 276 276 277 277 278 279 280 281 282 282 283 285 286 289 291 294
283 282 282 281 280 280 279 279 279 279 279 279 278 277 277 276 275 276 276 275 276 275 275 274 272 271 271 271 271 271 271 271 271 271 271 271 271 271 271 271 272 272 272 272 272 272 272 272 273 272 272 272 272 272 272 272 273 273 273 274 274 274 275 275 275 275 276 276 276 276 277 277 277 278 278 279 281 282 283 284 285 286 289 292 294
282 282 281 281 280 280 279 279 279 278 279 278 277 276 276 275 275 275 276 276 275 275 275 273 271 270 270 270 270 270 270 271 271 271 271 271 271 272 272 272 273 273 273 273 273 273 273 273 273 273 273 273 274 274 274 274 274 274 274 274 275 275 275 275 275 276 276 276 277 277 277 277 278 278 279 279 281 282 284 286 287 288 290 293 294
282 281 281 280 280 279 279 278 278 278 278 277 276 276 275 275 275 275 276 276 275 275 274 272 270 270 270 270 270 270 271 271 271 271 271 272 272 273 273 273 273 273 273 273 273 273 273 274 274 274 274 275 275 275 275 276 276 276 276 276 276 276 276 276 276 276 277 277 277 277 277 278 278 279 279 280 281 282 284 286 288 290 292 293 295
281 281 280 280 279 279 278 278 277 277 277 276 275 275 275 275 275 275 275 275 275 275 273 271 270 269 269 270 270 270 271 271 271 271 272 273 273 274 274 274 274 274 274 274 274 274 274 274 274 274 275 275 275 275 275 275 276 276 276 277 277 277 277 277 277 277 277 278 278 278 278 279 279 279 279 280 281 282 283 285 288 290 293 294 294
281 280 280 279 279 278 277 277 276 276 276 275 275 275 275 275 275 275 275 275 274 274 272 270 269 269 269 270 270 270 271 271 271 271 272 273 274 274 274 274 274 274 274 274 274 274 274 274 275 275 275 275 275 275 275 275 275 276 276 277 277 277 278 278 278 278 279 279 279 279 280 280 280 280 280 280 281 282 284 285 287 289 292 293 293
280 280 279 279 278 277 277 276 276 275 275 274 274 275 275 275 275 275 274 274 274 272 270 268 268 269 269 269 270 270 270 271 271 271 272 273 274 275 275 274 274 274 274 274 274 274 275 275 275 275 275 275 275 275 275 275 275 275 276 276 277 277 277 278 278 279 279 279 280 280 280 280 280 280 280 281 281 281 283 284 286 288 290 292 293
280 279 278 278 277 277 276 276 275 274 274 274 274 275 275 275 274 274 273 273 272 270 269 268 268 269 269 269 269 269 271 271 271 271 273 273 274 275 275 274 274 274 274 274 274 274 274 275 275 275 275 275 275 275 275 275 275 275 276 276 276 277 277 277 278 278 279 279 279 280 280 280 280 280 280 280 281 281 282 283 284 286 288 290 292
279 278 278 277 276 276 275 275 274 273 273 273 274 274 274 274 273 273 273 272 271 269 268 268 269 269 270 269 268 269 271 271 270 271 273 273 274 275 274 274 274 274 274 274 274 274 274 274 274 275 275 275 275 275 275 275 276 276 276 276 276 277 277 277 277 277 278 278 278 279 279 279 279 280 280 280 280 280 281 281 282 284 287 289 290
278 277 277 276 275 275 275 274 273 272 272 273 273 273 273 273 273 272 272 270 269 268 268 269 269 270 270 269 268 269 271 271 270 271 273 273 274 274 274 274 274 274 274 274 274 274 274 275 275 275 275 275 275 276 276 276 276 277 277 277 277 277 277 277 277 278 278 278 279 279 279 279 280 280 280 280 280 280 281 281 282 285 287 288 289
277 277 276 275 275 274 274 274 273 272 272 272 272 273 273 273 272 271 270 269 267 267 268 269 269 269 269 269 268 268 270 270 270 271 273 273 274 274 274 274 274 274 274 274 274 274 275 275 275 275 275 275 275 276 276 277 277 277 277 278 278 278 278 278 278 278 278 279 279 280 280 280 280 281 281 281 281 282 282 283 284 286 288 288 289
277 276 275 274 274 273 273 273 273 272 272 272 272 272 272 272 271 271 270 268 267 268 268 268 269 269 269 269 268 268 269 270 270 271 273 273 274 274 274 274 274 274 274 274 274 275 275 275 275 275 275 275 276 276 277 277 277 277 277 277 278 278 278 278 278 279 279 279 280 280 281 281 281 281 282 282 283 283 283 284 285 286 288 288 289
276 275 274 273 273 272 272 272 272 272 271 272 272 272 271 271 270 270 269 267 267 267 267 267 268 269 269 269 268 268 269 270 270 271 273 273 274 274 274 274 274 274 274 274 275 275 275 275 275 275 275 275 275 276 276 276 277 277 277 277 278 278 278 278 278 279 280 280 280 281 281 281 281 282 282 282 282 283 283 284 285 286 287 289 290
275 274 273 272 272 271 271 272 272 271 271 272 272 272 271 270 269 269 268 267 267 267 267 267 268 269 269 269 269 269 270 270 270 271 272 273 273 274 274 274 274 274 274 275 275 275 275 274 274 274 274 274 275 275 276 276 277 277 277 277 278 278 278 278 278 279 279 280 280 281 281 282 282 282 282 282 283 283 284 285 285 286 287 289 290
274 273 272 271 271 271 271 271 271 271 272 272 272 271 270 269 269 268 267 266 266 266 266 267 267 268 269 269 269 270 270 270 271 271 272 272 273 273 274 274 274 274 275 275 274 274 274 273 273 273 273 274 275 275 276 276 276 277 277 277 278 278 279 279 279 279 280 280 281 281 282 282 282 283 283 283 284 284 285 286 286 287 288 289 290
273 272 272 271 270 270 271 271 272 272 272 272 271 270 269 268 268 267 267 266 266 266 266 267 268 268 269 269 270 270 270 270 270 271 271 272 273 273 274 274 274 275 274 274 274 273 273 273 272 272 273 274 275 275 275 275 276 276 276 277 278 279 279 280 280 280 280 281 281 282 282 283 283 283 284 284 284 285 286 287 288 288 289 290 290
272 272 271 270 269 270 271 271 271 271 271 270 270 268 268 268 268 267 266 266 266 266 267 267 268 269 269 270 270 270 270 270 270 270 271 271 272 273 274 274 274 274 274 273 273 272 272 272 272 272 273 274 274 274 274 275 275 275 275 276 277 278 279 281 281 281 281 281 282 282 283 283 284 284 285 285 285 286 286 287 288 289 289 289 289
271 270 269 269 269 269 269 269 269 269 269 269 269 267 267 267 267 266 266 266 266 267 268 268 269 269 269 270 270 270 270 269 269 270 270 271 272 273 273 274 274 273 273 272 272 271 271 272 272 273 273 273 273 273 273 273 273 273 274 275 276 276 277 279 281 282 282 282 282 283 283 284 284 285 285 286 286 286 287 287 288 289 289 289 289
270 269 267 267 268 268 267 267 268 269 269 269 269 268 267 266 265 265 265 266 267 268 268 268 269 269 269 269 269 269 269 269 269 270 270 271 272 273 273 273 273 272 272 271 271 271 271 272 271 271 271 272 272 272 271 271 272 273 273 274 274 274 275 276 278 280 281 282 283 283 283 284 285 285 286 286 286 286 287 288 288 289 290 290 290
268 267 266 266 266 266 266 265 266 267 268 268 268 267 267 266 265 265 266 267 267 268 268 269 269 269 269 269 269 269 269 269 269 270 270 271 272 272 272 272 271 271 271 270 271 271 271 270 270 270 270 270 270 270 270 271 271 271 272 272 272 272 273 274 275 276 278 280 282 283 284 284 285 286 286 286 286 286 287 288 289 290 290 290 290
267 265 265 265 264 265 265 265 264 264 265 265 265 266 266 266 266 266 267 267 267 268 268 269 269 269 269 269 269 269 269 269 269 270 271 272 272 272 271 271 271 270 270 270 270 270 269 268 268 268 269 269 269 269 269 270 270 270 270 271 271 271 272 272 273 274 275 277 279 281 283 285 285 286 286 287 287 287 287 288 289 290 290 290 290
266 265 264 264 264 264 264 264 264 264 264 264 265 265 265 265 266 267 267 267 268 268 269 269 269 268 268 268 268 269 269 269 269 270 271 272 272 271 271 271 270 270 270 270 270 268 267 267 267 267 267 268 268 268 268 269 269 269 270 270 270 271 271 272 272 273 274 275 276 278 280 283 286 287 287 287 288 287 288 289 289 290 290 290 290
265 264 263 263 263 263 264 264 264 264 264 264 265 265 266 266 266 267 267 267 267 268 269 269 268 268 268 268 268 268 268 269 270 271 272 271 271 271 271 271 270 270 270 270 269 266 266 266 266 266 267 267 267 267 268 268 269 269 269 270 270 270 271 271 272 272 273 273 274 275 277 280 284 287 287 287 288 288 288 289 290 290 290 290 291
264 263 263 263 263 263 263 263 264 264 264 264 265 265 266 266 266 266 267 267 268 269 269 269 268 268 268 268 268 268 269 269 271 271 271 271 271 271 271 271 270 269 270 269 267 265 265 265 265 266 266 266 267 267 267 268 268 268 269 269 269 270 270 270 271 271 272 272 273 274 275 278 281 285 288 288 288 288 288 289 289 290 291 291 291
263 263 263 263 263 263 263 263 264 264 264 264 264 264 265 266 266 267 267 267 268 268 268 268 268 268 268 268 268 268 269 270 270 270 270 270 270 270 270 270 269 269 269 267 265 264 265 265 265 265 265 266 266 266 267 267 268 268 268 269 269 269 270 270 270 271 271 271 272 273 275 276 278 281 285 288 288 288 289 289 290 290 291 291 291
264 263 263 263 263 263 263 264 264 264 264 264 264 265 265 265 266 267 267 267 267 268 268 268 268 268 268 268 268 268 269 269 270 270 269 269 269 269 269 268 268 268 267 266 264 264 264 264 264 265 265 265 265 266 266 267 267 268 268 269 269 269 269 270 270 270 271 271 272 272 273 274 275 277 281 285 288 289 289 290 290 291 291 291 291
265 264 263 263 263 264 264 264 264 264 264 264 265 265 266 266 267 267 266 266 266 267 267 266 266 267 267 267 268 268 269 269 269 269 269 269 269 268 267 267 267 267 266 264 263 264 263 263 264 264 264 264 265 265 266 266 267 267 268 268 269 269 269 270 270 270 271 271 272 272 272 273 274 275 277 281 285 289 290 290 290 291 291 291 292
268 266 265 265 264 264 264 264 264 264 264 264 265 266 266 266 267 267 266 265 266 266 265 265 265 266 266 266 267 267 268 268 268 268 268 268 268 267 266 266 266 266 264 263 263 263 263 263 263 263 264 264 264 265 265 266 266 267 267 268 268 269 269 269 270 270 271 271 271 271 271 272 272 273 275 277 281 286 289 290 290 291 291 291 292
267 267 266 266 265 264 264 265 265 265 264 264 264 265 265 265 265 265 265 265 265 264 264 264 265 265 265 265 265 266 267 267 268 267 267 267 266 265 265 264 264 263 263 262 262 262 262 262 263 263 263 263 264 264 265 266 266 267 267 267 268 269 269 269 270 270 271 270 270 271 271 271 271 272 273 275 277 281 286 290 291 291 291 291 292
266 265 265 265 265 265 265 265 265 265 264 264 264 264 263 263 262 262 262 262 262 262 262 263 264 264 264 264 265 265 266 266 266 266 266 265 265 264 262 261 261 261 261 261 261 261 261 261 262 262 262 263 263 264 264 265 266 266 266 267 268 269 269 270 270 270 270 270 270 270 270 270 270 271 272 273 275 278 282 287 291 292 291 292 292
265 264 264 265 265 265 265 265 265 265 264 264 264 263 262 262 262 262 262 262 262 262 262 263 264 264 263 264 264 265 265 265 265 265 265 265 265 264 261 260 260 260 260 260 260 260 260 261 261 261 262 262 263 263 264 265 265 266 266 267 267 268 269 270 270 270 270 270 270 270 270 270 270 270 271 272 273 275 279 283 288 291 292 292 293
266 266 265 266 266 265 265 264 264 264 264 263 263 263 262 262 262 262 262 262 262 262 261 261 261 261 261 262 263 264 265 265 265 265 265 264 264 262 260 259 259 259 259 259 259 259 260 260 261 261 262 262 263 263 264 265 265 266 266 266 267 268 269 270 270 270 270 270 269 269 269 269 269 270 270 271 272 273 276 279 284 289 292 292 292
265 266 265 265 265 265 264 264 263 263 263 262 262 262 262 261 260 260 261 261 260 260 260 260 259 259 260 261 262 263 263 263 263 263 263 263 262 260 259 258 258 258 258 259 259 259 259 260 260 261 261 262 263 263 263 264 265 265 266 266 267 268 269 270 270 270 270 269 269 269 269 269 269 269 270 270 271 272 274 277 281 286 291 293 293
264 265 265 264 264 264 264 263 263 262 262 262 261 261 260 260 260 260 260 259 259 259 259 259 259 259 260 261 261 262 261 261 260 260 260 260 260 259 259 258 258 258 258 258 258 258 258 259 259 260 261 262 262 263 263 264 264 265 265 266 267 269 269 270 270 270 269 269 269 269 268 269 269 269 269 270 271 272 273 276 279 284 289 292 293
264 264 264 264 264 263 263 262 262 262 262 262 261 260 260 260 261 261 260 259 259 258 258 258 258 259 259 261 261 261 261 260 259 259 258 259 259 259 259 258 258 258 258 258 258 258 258 258 259 260 261 262 262 263 263 264 264 265 265 266 267 269 270 270 270 270 269 269 268 268 268 268 268 269 269 270 271 272 273 275 277 281 286 291 294
264 264 264 264 263 263 262 261 262 262 262 261 261 260 261 261 261 261 260 260 259 259 258 258 258 258 259 260 260 260 260 260 259 259 259 259 259 259 259 259 259 258 258 258 258 258 258 258 259 260 260 261 262 263 263 264 264 265 265 266 268 269 270 270 270 269 269 268 268 268 268 268 268 269 269 269 270 271 272 274 277 280 285 291 295
265 264 264 263 263 262 262 261 261 261 261 260 260 260 261 261 261 261 261 260 260 259 259 258 258 259 260 259 260 260 260 260 260 260 260 260 259 259 260 260 260 260 260 260 259 258 258 258 259 260 261 262 263 263 264 264 265 265 265 266 268 270 270 270 270 269 269 268 268 268 268 268 268 268 269 269 270 271 272 274 277 280 286 292 296
264 263 263 262 262 262 262 261 261 261 260 260 260 260 261 261 260 260 260 260 260 259 259 258 259 260 260 260 260 261 260 260 260 260 260 260 260 260 260 260 260 261 261 261 261 260 259 259 259 260 262 263 264 264 264 265 266 266 266 267 269 270 270 270 270 269 268 268 268 267 268 268 268 268 268 269 270 271 272 275 277 281 287 294 298
263 263 262 261 261 261 260 261 261 260 260 260 259 260 260 260 260 260 260 260 260 259 258 258 259 260 260 260 260 260 260 260 260 260 260 260 260 260 260 261 261 261 262 262 262 261 261 260 260 261 262 263 264 264 265 265 266 267 267 267 269 270 270 270 269 269 268 268 267 267 267 267 268 268 268 269 270 271 272 274 276 280 287 294 298
263 263 262 261 260 260 259 260 260 260 259 259 259 259 259 259 260 260 259 259 259 258 258 258 259 260 260 260 260 260 260 260 261 260 260 260 260 261 261 261 261 261 262 262 262 262 262 262 261 261 262 263 264 264 265 266 267 267 267 268 269 270 270 270 269 269 268 267 267 267 267 267 268 268 268 269 270 270 272 274 276 280 287 295 298
262 262 261 261 260 259 259 259 260 260 260 260 259 259 258 259 259 259 259 259 259 258 258 259 259 259 259 260 260 260 261 261 261 261 261 261 260 261 261 261 261 261 262 262 262 262 262 262 262 262 262 263 263 264 265 266 266 267 267 268 269 270 270 270 269 269 268 267 267 267 267 267 267 267 268 268 269 270 271 273 275 280 289 296 297
262 261 261 260 260 259 258 259 259 259 259 259 259 259 259 259 259 259 259 259 259 258 258 259 259 259 259 260 260 260 261 261 261 261 261 261 261 261 261 261 261 261 262 262 262 262 262 263 263 263 263 263 263 264 265 266 266 266 267 268 269 270 270 270 269 269 268 267 267 267 267 267 267 267 267 268 269 269 270 272 274 279 288 296 297
261 261 260 260 260 259 259 259 259 259 259 259 259 258 258 258 258 259 259 258 258 258 259 259 259 259 259 260 260 260 261 261 261 261 261 261 261 261 261 261 261 261 261 262 262 262 262 263 263 264 264 264 264 264 265 266 266 266 267 268 269 270 270 270 269 268 268 267 267 267 267 267 267 267 267 268 268 268 270 271 273 277 285 293 297
261 261 261 260 260 260 260 260 260 260 260 259 259 258 258 258 258 258 258 258 258 258 259 259 259 259 259 260 260 260 261 261 261 261 261 261 261 260 260 261 261 261 261 261 262 262 262 263 263 263 264 264 264 265 266 266 266 266 267 268 269 270 270 270 269 268 268 267 267 267 267 267 267 267 267 267 268 268 269 270 272 274 279 287 294
261 261 261 261 261 260 260 260 260 260 260 260 259 258 258 258 258 258 258 257 258 258 259 259 259 259 260 260 260 260 261 261 261 261 261 260 260 260 260 260 261 261 261 261 261 262 262 262 263 263 264 264 265 265 266 266 266 266 267 268 269 270 271 270 269 268 268 267 267 267 267 267 267 267 267 267 267 268 268 269 271 272 274 279 287
Wind_Speed
38 37 36 36 36 35 34 33 31 30 29 29 28 27 24 22 20 18 16 15 15 15 15 15 15 14 15 15 15 15 15 14 14 14 15 16 16 17 17 17 19 20 21 22 22 22 24 25 26 26 25 26 29 29 29 29 30 31 32 33 34 34 34 30 20 18 29 42 45 40 36 36 37 38 39 41 46 47 45 47 48 49 48 47 47
37 37 36 35 36 34 33 33 31 30 30 29 28 26 24 22 20 17 16 16 15 15 15 15 14 14 15 15 16 15 15 15 14 14 15 16 16 16 16 17 19 20 21 22 22 22 23 25 26 25 24 25 28 29 29 29 30 32 32 32 34 34 33 33 27 18 22 36 42 37 32 32 34 37 40 43 46 45 42 41 41 41 42 42 43
37 37 35 34 34 34 33 32 31 31 30 29 28 26 23 21 19 18 17 16 15 15 14 14 14 14 15 16 16 15 14 14 14 14 15 16 16 16 17 17 19 20 21 21 21 21 22 24 25 24 23 25 28 29 29 29 30 31 33 32 33 35 35 35 32 23 20 29 36 34 29 31 35 38 41 44 45 46 49 48 43 40 40 40 40
37 36 35 34 33 33 32 31 31 31 30 29 28 25 23 21 19 18 17 16 15 14 15 15 15 15 15 15 15 14 14 13 13 14 15 16 16 17 17 18 19 20 21 21 21 22 23 24 24 23 23 26 28 29 28 29 30 30 32 32 33 35 35 34 33 30 26 26 31 32 30 33 38 39 40 41 41 45 50 51 48 45 43 42 42
37 36 35 34 32 33 32 32 32 32 31 29 27 25 23 21 19 18 17 16 15 14 15 16 15 15 15 14 14 14 13 13 13 14 15 15 16 17 17 18 19 20 21 21 21 22 23 24 24 24 26 29 30 30 29 30 30 31 31 32 32 33 33 32 31 31 30 28 30 33 32 33 37 38 39 39 38 40 41 40 42 43 43 44 45
38 35 34 33 32 32 32 32 33 33 31 29 26 25 23 21 19 18 17 17 16 15 15 15 15 14 14 13 13 13 12 12 13 14 15 15 16 17 18 18 19 19 20 20 21 22 24 26 27 28 30 32 32 31 31 31 32 32 32 32 33 33 33 32 31 32 33 33 33 33 32 33 35 37 37 35 35 37 36 35 38 40 39 40 42
37 34 32 32 32 31 32 33 34 33 31 29 26 25 23 21 19 19 18 17 16 16 15 15 14 14 14 13 12 12 12 12 13 14 14 15 15 16 17 18 19 19 20 21 22 24 26 28 29 30 31 33 34 34 33 33 33 34 34 34 33 33 32 32 32 32 32 32 31 31 30 31 32 34 35 34 34 36 34 30 33 38 38 37 38
33 30 30 30 29 30 32 33 33 32 31 28 25 24 23 21 20 20 18 17 16 15 14 14 14 13 13 12 11 11 11 12 13 13 13 14 14 15 16 18 19 20 21 22 24 25 27 29 30 31 32 34 35 35 35 34 34 34 35 34 33 33 32 31 30 29 29 29 28 29 29 29 31 34 35 33 30 31 32 28 26 33 37 36 36
28 28 27 27 28 30 32 32 32 31 30 27 25 24 23 22 21 19 18 16 15 14 13 13 13 13 11 10 9 10 11 12 13 12 13 13 14 16 17 18 18 19 20 22 24 26 28 30 32 33 35 36 37 38 38 38 37 37 36 33 32 32 31 30 28 26 25 24 24 26 25 23 27 30 30 29 26 27 32 30 26 32 36 33 32
26 27 25 25 30 33 33 32 32 31 29 27 26 25 23 22 20 18 16 15 14 13 13 12 12 11 9 9 9 10 11 12 13 12 13 15 16 17 18 19 19 20 21 22 23 25 28 30 33 34 36 37 39 40 41 42 42 41 41 39 36 34 31 29 26 24 23 21 21 23 18 16 23 29 29 31 31 32 34 31 27 30 29 21 21
26 27 26 27 32 33 33 33 31 30 29 27 25 24 23 22 20 17 16 14 14 13 12 11 10 9 9 8 9 10 12 13 13 13 15 16 18 19 20 21 22 22 21 21 23 26 29 31 33 34 35 36 37 38 39 40 40 41 43 43 41 39 37 32 27 25 24 22 22 22 16 14 23 30 31 34 33 32 33 31 29 27 18 9 9
29 29 28 30 33 33 33 33 31 29 28 27 25 24 22 21 19 17 16 14 13 12 11 10 9 9 9 9 9 11 13 14 13 14 16 17 18 19 20 21 22 22 22 22 25 29 30 32 34 34 34 34 35 36 38 39 39 39 40 41 42 42 43 41 36 33 30 26 24 23 21 21 26 30 32 33 31 31 33 31 29 27 18 7 6
31 30 30 32 33 33 33 32 30 29 28 27 26 24 22 20 18 17 15 13 12 11 10 10 9 9 8 8 10 12 14 14 13 13 16 17 18 19 20 21 22 23 23 24 27 29 30 33 35 35 34 34 35 36 37 38 38 38 39 39 40 40 42 44 44 42 40 35 31 27 26 27 29 29 33 34 33 32 32 31 31 30 23 13 9
32 32 32 33 34 33 33 33 31 28 27 26 25 23 21 20 18 16 14 13 11 11 10 10 9 8 8 9 11 12 14 14 13 14 17 17 18 19 20 21 21 23 24 25 27 29 31 33 35 36 36 36 36 36 37 38 37 37 37 37 38 38 40 41 42 43 44 42 39 36 34 34 33 34 38 39 37 34 31 32 32 31 29 25 20
34 34 34 34 34 34 33 33 30 28 27 26 24 23 21 19 17 16 14 12 11 10 9 9 9 8 8 9 11 13 15 14 13 15 17 17 19 19 19 20 20 22 24 25 27 30 32 33 35 37 39 38 37 37 37 39 39 38 37 38 38 39 39 40 39 39 42 42 42 43 42 41 41 41 43 43 40 38 37 39 40 37 37 34 27
35 36 36 35 35 35 34 33 30 28 27 26 24 22 21 19 17 15 13 11 10 10 10 9 8 8 8 9 11 14 16 14 12 15 16 17 19 18 18 20 21 23 25 26 29 32 33 33 35 38 40 39 38 38 40 41 41 39 38 38 39 39 40 41 41 42 44 45 46 48 47 47 46 45 45 44 40 38 38 40 41 37 31 24 17
36 37 37 35 35 35 34 33 31 28 27 26 24 23 21 19 17 15 13 12 11 11 10 8 7 7 8 10 11 14 15 13 12 14 15 17 19 18 19 21 23 25 26 28 30 32 33 33 34 38 41 40 40 40 41 42 41 39 38 38 38 38 39 40 41 44 47 48 49 51 51 51 50 47 48 47 45 43 37 31 31 28 20 13 10
36 37 36 36 36 34 33 32 31 29 27 25 24 22 20 17 16 14 13 12 12 10 8 6 6 7 9 10 10 12 14 13 12 14 15 17 19 19 20 22 24 26 28 30 31 32 33 33 34 37 39 39 40 40 40 40 39 37 36 37 37 35 35 36 37 39 42 44 47 48 47 49 50 48 48 49 48 47 41 33 31 26 16 11 10
38 37 35 34 33 32 31 30 29 28 26 24 23 21 18 16 15 13 12 11 10 8 6 6 7 7 8 9 9 10 12 12 12 13 15 17 18 19 20 23 25 27 29 31 34 34 33 33 34 36 37 38 39 39 39 39 39 38 37 35 34 33 33 35 35 35 35 36 38 39 40 42 44 44 46 47 45 45 45 43 39 31 19 13 11
37 35 33 32 31 30 29 28 27 26 25 23 21 19 18 16 14 13 12 10 8 7 7 8 7 6 6 8 8 9 10 11 12 13 15 17 18 19 22 23 24 27 29 31 33 33 32 32 33 34 36 37 38 39 39 41 42 42 40 36 33 35 37 38 38 37 36 35 36 37 37 37 39 38 39 40 39 39 43 44 42 38 30 23 18
37 35 33 32 31 29 28 27 26 25 23 22 21 19 17 15 14 13 11 10 8 9 9 7 5 5 5 7 8 8 9 11 12 13 14 16 18 20 22 23 24 27 30 30 31 31 31 33 33 34 37 38 39 41 43 44 45 43 41 38 37 40 42 41 40 38 37 35 36 37 36 35 35 35 36 36 36 35 37 39 40 41 38 30 21
40 38 36 34 32 31 30 28 27 25 24 23 22 20 18 15 14 13 11 10 9 9 7 5 4 4 5 6 7 7 8 10 12 13 14 16 18 20 23 24 25 28 28 28 30 30 31 33 34 36 39 41 42 44 44 44 43 40 38 39 40 42 43 41 37 34 32 32 31 32 32 30 30 32 33 33 33 33 34 35 37 38 37 34 28
43 40 38 36 33 32 31 29 28 27 25 24 22 20 18 16 14 14 13 11 8 7 6 5 4 3 4 5 6 7 8 9 11 13 15 17 19 21 23 24 25 27 26 27 29 30 31 33 34 38 42 43 42 43 42 40 38 36 36 38 39 39 39 35 30 29 28 28 27 27 27 27 27 28 29 29 29 30 31 33 34 35 33 34 35
43 40 39 36 33 32 31 29 28 26 25 24 22 19 18 17 15 14 13 11 8 7 7 5 3 2 2 4 5 7 9 10 11 13 16 19 21 22 23 24 25 26 26 27 27 28 30 33 37 41 43 41 39 39 38 36 34 34 36 37 36 33 30 26 23 23 23 23 23 24 25 26 26 27 27 26 27 28 29 31 33 34 33 34 35
41 40 39 36 35 34 30 28 27 26 26 25 23 21 20 18 16 14 13 11 8 8 7 5 3 1 2 4 5 7 9 10 12 13 16 19 20 22 23 24 25 27 27 27 26 27 31 35 38 39 37 35 35 35 33 32 32 34 34 33 31 28 24 23 22 20 19 20 21 23 25 27 28 28 28 27 27 28 29 29 31 31 30 31 32
42 41 39 37 36 34 31 28 26 25 26 25 23 22 21 19 15 13 12 11 9 8 6 5 3 1 1 3 5 7 9 10 12 14 17 18 20 22 24 25 25 26 26 25 26 28 30 31 32 32 31 32 32 32 32 32 32 31 31 29 27 25 23 22 22 20 19 20 21 23 26 28 29 29 29 28 27 28 28 28 28 27 25 25 25
43 41 39 37 35 33 32 30 26 25 25 24 22 20 20 19 15 12 12 11 9 8 7 5 4 2 1 3 5 7 8 10 12 14 17 19 21 22 23 24 25 25 23 24 26 27 27 27 28 28 28 29 29 29 30 30 30 29 28 27 26 25 24 24 23 22 22 22 23 24 26 28 29 28 27 27 27 28 28 28 26 23 22 22 19
44 41 39 38 35 33 33 31 29 27 26 25 23 21 21 19 14 12 13 12 10 9 7 5 4 2 1 2 4 6 7 9 12 15 18 21 22 23 24 24 25 24 23 26 27 25 25 25 26 26 26 26 27 27 27 27 27 27 28 27 26 25 25 25 24 22 22 22 23 25 26 26 26 27 26 25 26 27 27 27 25 23 21 20 14
43 40 37 36 34 32 31 31 30 29 27 25 22 20 21 19 15 13 14 12 8 7 6 5 4 2 0 2 3 5 6 9 12 16 19 20 21 23 24 25 25 24 25 27 26 25 24 24 24 24 25 25 26 26 27 27 26 26 27 27 26 25 24 24 23 22 23 23 23 24 25 25 24 25 24 22 24 26 25 24 24 23 21 17 12
40 38 36 34 33 32 31 29 28 28 28 26 21 19 19 17 14 13 12 10 7 6 5 5 4 2 1 1 3 4 6 10 13 16 17 18 20 22 23 23 23 23 24 25 23 22 22 22 22 23 23 24 25 25 26 28 27 26 27 27 26 25 25 24 24 24 24 24 23 23 23 23 24 23 21 20 21 23 23 23 24 23 20 15 9
37 33 35 35 34 34 33 30 28 28 28 27 24 21 18 14 11 10 9 8 7 6 6 6 4 3 2 1 2 4 6 10 13 15 16 18 20 21 22 22 21 21 23 23 20 19 19 19 20 22 23 24 25 25 26 27 27 27 27 26 26 27 26 25 26 27 26 24 23 23 22 22 23 24 20 19 20 20 20 22 24 22 19 15 9
39 35 37 38 36 36 35 33 30 29 28 27 24 21 18 14 12 11 10 9 8 7 7 6 5 4 4 3 2 4 6 9 12 14 16 17 19 21 21 20 20 21 22 20 18 18 19 18 19 21 22 23 24 26 27 26 27 28 27 26 27 28 28 29 29 28 27 25 23 22 23 23 23 24 24 21 20 19 18 18 20 19 16 14 11
48 43 41 39 37 36 35 34 32 30 29 28 25 20 17 15 14 13 12 10 9 8 7 6 5 5 4 4 4 5 7 9 12 14 15 17 19 21 21 20 20 20 20 18 16 18 19 19 19 21 22 23 25 26 27 27 27 28 27 27 27 29 31 32 31 27 25 25 24 23 23 23 23 23 24 24 21 18 17 17 18 16 12 10 10
53 50 47 44 42 38 36 35 33 31 29 28 25 21 18 17 16 16 14 11 10 8 6 5 5 4 4 4 6 7 8 10 13 14 15 17 19 21 23 25 24 24 24 20 18 19 19 19 20 22 22 24 25 27 27 27 27 28 28 29 28 29 32 33 30 25 24 24 24 24 23 23 24 23 22 22 22 18 16 16 15 13 9 7 7
49 47 46 45 43 40 37 36 34 31 29 26 23 21 19 18 17 16 14 12 11 10 7 5 5 5 4 4 5 7 8 10 12 13 15 17 18 21 24 26 26 26 25 22 20 20 19 19 20 22 24 24 26 27 27 27 28 28 30 30 29 28 31 31 27 24 25 25 25 24 24 24 24 23 22 21 19 16 13 13 14 12 10 9 7
43 41 39 38 39 38 37 35 33 31 30 27 24 23 22 20 19 18 16 14 13 11 8 6 6 5 4 3 4 5 7 10 12 12 13 14 17 21 23 20 19 20 20 20 21 21 21 21 22 23 25 25 26 28 28 28 29 30 32 32 31 29 29 29 27 27 28 27 25 24 24 24 24 24 24 22 19 17 16 15 15 14 14 12 10
43 41 39 37 38 38 36 33 32 30 29 27 25 23 22 20 18 17 15 13 12 10 8 6 5 5 4 4 5 5 7 10 10 10 12 14 18 23 22 18 17 18 18 19 20 21 22 24 25 26 29 29 29 30 30 29 30 32 34 35 33 30 30 31 30 29 27 26 25 24 23 23 24 24 23 21 19 18 18 18 17 14 15 16 13
46 46 44 42 41 40 36 33 31 30 29 26 24 23 21 18 16 15 14 12 10 9 7 6 5 4 4 6 7 8 9 11 11 12 15 18 20 22 21 19 18 18 18 21 22 22 24 27 28 30 34 37 35 33 32 31 32 33 36 36 33 31 33 35 32 28 26 26 26 25 24 23 23 24 23 21 20 18 18 19 18 14 13 13 12
44 42 42 42 41 40 38 35 32 30 29 26 24 23 21 18 17 15 13 12 11 9 7 5 4 3 3 6 10 11 11 13 13 15 17 18 20 20 20 20 19 19 21 23 24 24 26 29 31 32 35 40 43 40 36 34 33 33 37 37 32 30 34 36 31 28 28 28 27 26 25 24 23 24 23 22 21 20 19 19 18 15 12 9 10
40 38 38 40 40 38 37 36 33 31 30 27 25 23 21 20 20 18 16 15 13 10 8 7 4 3 4 6 9 9 8 9 10 11 13 15 17 19 19 19 19 20 22 24 25 26 27 29 31 32 33 38 44 45 43 40 38 39 41 37 30 29 36 36 31 29 31 30 29 28 27 25 25 24 23 22 22 21 20 19 19 19 17 14 14
42 40 37 38 38 36 35 34 33 31 30 28 27 25 23 22 22 20 18 17 14 12 10 8 6 5 6 6 6 4 3 4 6 8 10 13 15 17 18 19 19 21 23 24 25 28 29 29 32 33 33 35 41 46 49 48 47 48 48 40 31 32 38 37 33 33 34 32 32 30 28 26 26 24 23 24 25 23 21 21 20 20 19 19 19
45 41 38 37 38 38 36 33 31 31 30 28 26 25 24 23 22 20 18 17 15 13 11 9 7 7 7 5 3 1 2 4 6 8 11 12 14 16 18 19 20 21 23 24 25 27 28 30 32 33 33 35 39 44 49 51 50 52 53 43 33 33 38 37 35 37 36 34 34 33 31 30 28 26 25 26 26 23 21 21 21 20 19 20 21
46 43 41 40 40 39 36 34 32 30 29 27 26 24 24 24 22 20 18 17 15 13 12 9 7 8 8 7 4 3 4 7 8 10 11 13 14 16 18 19 21 23 24 25 26 26 27 29 32 33 34 36 38 42 47 49 50 53 52 42 33 34 39 39 38 39 38 36 36 35 33 31 29 27 26 26 25 23 21 21 20 19 20 19 18
44 42 40 38 37 36 35 34 33 31 28 27 26 24 24 23 21 19 18 16 14 13 11 9 8 9 8 7 6 5 7 8 9 10 12 13 14 16 18 19 21 23 25 26 27 28 28 30 31 33 35 37 39 41 44 44 46 50 48 39 32 35 40 41 41 41 39 38 38 36 34 32 30 27 26 25 23 21 20 20 19 19 20 17 14
44 42 40 38 36 35 33 32 31 30 28 27 25 24 23 21 20 19 17 16 14 12 10 9 9 9 8 7 6 7 8 9 10 11 12 13 14 15 17 19 21 23 25 26 27 29 30 31 32 34 36 38 39 41 43 43 44 46 43 35 31 35 40 43 44 43 41 40 39 36 34 33 30 27 27 26 24 22 21 20 20 20 18 13 10
45 44 42 40 37 35 33 32 31 30 29 28 26 24 22 20 19 18 16 15 14 12 10 9 9 8 7 6 6 7 8 9 10 11 11 12 13 14 16 19 21 22 24 25 27 29 31 32 33 34 35 37 39 41 42 44 45 43 39 34 33 35 41 47 47 44 43 42 40 36 35 33 30 29 30 29 26 24 23 21 22 23 19 12 10
44 43 41 39 37 35 33 31 31 30 28 28 26 24 22 20 19 17 16 15 14 12 10 10 9 8 6 6 7 7 8 9 10 10 11 12 13 14 16 18 20 21 23 24 26 28 31 32 33 34 35 36 38 40 42 45 45 41 38 37 37 38 44 51 50 46 45 44 40 36 36 34 31 31 32 30 26 25 24 22 23 24 20 13 11
42 42 40 37 36 35 32 31 30 28 27 26 25 23 22 20 18 17 16 14 13 12 10 9 9 7 7 6 7 7 8 8 9 10 11 12 13 14 15 17 19 21 23 24 25 28 30 31 33 35 35 36 38 40 42 44 44 40 38 41 42 42 46 52 52 50 49 46 40 37 37 35 33 34 34 30 27 26 24 22 23 24 19 12 10
42 41 39 37 36 35 33 32 31 29 27 26 24 22 21 20 18 17 16 14 12 11 10 9 8 7 6 6 6 7 7 8 9 10 11 12 13 14 15 17 18 20 22 24 26 28 29 30 32 33 34 36 38 39 41 43 43 39 40 45 46 44 46 52 55 54 52 47 42 39 39 37 35 36 35 31 29 29 26 23 23 23 17 10 8
42 41 39 38 37 35 33 32 31 29 28 26 24 22 22 20 18 17 16 14 12 11 10 9 8 7 6 6 6 7 7 8 8 9 10 11 13 14 16 17 18 19 21 23 25 27 28 30 31 32 34 36 38 39 40 42 41 39 41 47 48 45 45 50 55 56 53 49 44 41 41 39 37 37 37 34 32 30 27 24 23 21 17 10 5
40 38 38 36 35 33 32 30 29 27 26 25 24 23 22 20 18 17 16 14 13 11 10 8 7 6 6 6 6 6 6 6 7 8 9 11 13 14 16 18 19 20 21 23 24 26 28 29 30 32 33 35 37 39 40 40 39 39 42 47 48 45 42 46 52 55 54 49 45 43 42 41 39 38 37 36 33 31 29 27 23 20 18 16 8
Wind_Direction
197 196 196 197 196 194 196 198 200 202 204 206 207 208 210 212 216 221 226 232 238 242 245 250 255 254 253 255 256 259 260 260 262 264 266 268 269 269 270 270 271 272 273 272 270 270 270 271 272 272 273 274 274 273 273 272 271 268 266 265 264 262 261 262 265 272 271 269 271 275 277 280 282 280 280 280 279 277 274 271 271 271 270 269 265
196 195 194 195 195 193 194 196 198 200 202 203 205 206 208 211 215 219 224 230 234 237 242 247 248 245 247 252 255 256 257 256 257 263 265 266 268 269 269 270 271 271 272 272 272 271 272 272 273 273 274 273 274 274 275 274 273 270 266 265 265 263 261 264 268 270 272 271 271 275 279 281 281 279 278 278 277 277 276 272 271 269 265 265 264
194 194 193 192 193 192 193 194 196 198 199 201 202 204 206 210 214 218 222 226 230 235 239 239 238 240 247 252 254 254 257 256 255 261 266 266 267 269 269 270 270 270 270 271 272 273 273 273 273 274 275 275 275 274 274 274 273 271 269 266 265 265 264 264 266 266 271 273 273 276 280 280 280 280 279 277 274 274 275 274 273 272 268 266 265
193 191 191 190 189 190 191 192 194 195 196 198 200 202 205 208 213 217 220 223 226 230 235 237 239 245 247 249 250 251 255 258 259 264 267 267 268 270 270 269 268 268 269 270 272 273 273 272 272 274 275 276 276 275 274 274 272 271 270 267 265 267 267 265 263 264 268 273 274 275 278 279 277 279 280 279 275 272 273 272 269 270 271 269 267
191 189 188 186 184 187 189 190 192 193 194 196 198 200 203 206 211 215 217 220 223 227 234 240 244 246 244 244 247 249 256 263 264 266 269 269 269 269 270 269 268 268 269 270 272 272 272 273 274 277 278 276 275 274 273 273 272 270 269 268 267 267 268 267 265 265 265 270 274 276 277 276 277 278 278 278 278 277 275 270 265 266 268 268 268
188 186 185 182 182 185 187 188 191 191 192 194 196 200 204 205 208 213 216 218 222 228 235 240 243 244 244 246 251 257 263 268 269 271 273 270 268 268 269 270 270 270 271 272 273 274 274 275 276 278 276 273 271 271 271 271 271 269 268 268 268 267 267 266 264 264 264 266 271 274 274 273 275 279 277 275 276 277 278 276 272 270 270 270 269
186 183 180 179 180 182 185 188 189 189 191 193 194 199 203 204 206 211 216 219 224 230 236 241 244 246 248 251 260 267 270 272 275 279 276 270 268 269 271 272 273 274 275 276 277 276 276 275 274 273 270 267 266 266 266 267 268 267 267 268 269 267 266 265 263 262 262 264 266 269 271 272 274 278 281 281 278 271 269 272 276 274 271 269 267
181 177 176 177 178 179 183 187 187 187 190 191 193 197 201 204 207 211 217 222 227 232 237 240 242 245 250 258 268 273 273 276 279 277 271 269 269 272 274 276 277 278 278 278 278 277 276 275 272 269 267 265 264 263 262 263 264 265 264 266 268 267 265 264 263 262 262 263 264 265 267 271 273 277 282 284 281 272 265 260 264 269 270 269 263
174 174 174 175 178 179 182 184 184 186 188 189 192 196 199 204 208 213 217 221 226 231 236 239 241 245 254 264 272 274 275 280 281 272 264 269 275 277 279 279 279 280 279 279 279 277 276 275 272 271 269 268 269 269 268 266 264 263 262 261 262 262 261 260 259 259 260 261 262 262 263 266 270 276 280 279 276 278 276 269 260 262 266 268 260
172 174 173 174 179 180 180 181 182 184 185 188 192 196 199 204 208 212 216 220 225 231 234 237 241 246 255 264 270 274 276 279 283 275 266 272 281 283 283 282 282 282 281 280 280 279 279 278 276 275 275 275 275 275 274 272 270 268 266 263 260 259 258 256 253 250 252 255 256 257 257 259 264 270 276 277 278 281 283 281 274 267 264 263 262
172 175 174 175 179 179 178 180 181 183 185 188 192 195 200 204 207 211 215 218 224 230 234 237 239 244 251 261 272 279 281 283 285 278 271 278 284 285 288 288 287 285 283 282 283 284 285 283 282 281 280 279 279 278 277 276 274 273 272 269 265 263 260 258 253 248 249 253 253 252 253 261 265 269 275 278 279 280 280 281 282 277 268 257 269
177 177 176 176 177 177 178 179 180 182 185 189 193 195 199 203 206 210 212 216 222 227 233 236 237 242 249 263 275 282 289 294 292 281 278 284 288 289 291 292 290 289 286 285 287 288 288 288 287 285 282 280 281 281 280 279 277 275 275 273 271 269 266 264 262 259 258 259 259 255 255 261 265 266 270 274 277 280 282 283 283 282 277 264 268
179 178 177 177 177 177 179 178 179 182 185 190 193 196 199 202 205 208 210 214 219 224 230 233 237 245 253 266 276 282 293 302 300 287 286 290 293 295 295 292 290 289 287 287 289 290 290 291 291 289 287 285 284 283 281 281 279 278 277 275 274 273 272 270 269 268 266 266 266 263 260 264 267 267 269 272 274 277 280 282 283 284 285 278 269
178 177 176 177 177 178 179 179 180 182 186 190 192 195 198 200 203 206 208 212 216 221 228 234 241 253 263 271 277 286 300 311 307 294 292 297 301 302 300 295 291 289 288 289 290 291 291 291 292 291 290 288 286 284 283 281 280 278 276 274 272 271 272 272 273 272 270 269 268 267 266 266 267 269 270 270 269 269 270 274 278 282 285 285 281
177 177 176 177 178 179 179 179 179 182 186 189 191 193 195 197 200 203 205 210 215 221 229 237 247 260 273 279 282 294 311 319 308 295 298 304 307 307 303 297 294 291 291 290 290 290 290 290 290 289 289 288 287 286 285 283 282 279 275 272 270 268 267 268 270 270 269 268 266 265 265 264 263 265 267 265 264 263 263 266 271 274 278 281 283
177 177 176 177 179 179 179 178 179 182 185 187 188 191 193 195 197 199 201 206 215 222 227 236 251 267 283 289 290 301 317 322 307 300 307 311 313 312 305 302 299 296 295 294 292 292 291 290 290 289 289 289 290 290 290 287 285 281 277 275 273 269 266 266 266 267 269 268 265 264 263 261 259 259 259 259 260 261 261 263 264 264 269 274 275
177 177 177 177 178 179 180 179 180 182 184 185 187 189 191 193 194 196 197 202 212 222 228 238 256 272 286 293 294 300 316 327 316 309 314 316 316 315 308 305 304 299 298 298 296 295 294 292 292 293 293 293 293 294 294 291 289 287 284 283 281 276 274 272 268 267 268 268 267 268 268 264 260 258 257 258 260 259 259 259 257 256 261 266 266
179 178 177 178 178 179 180 180 181 182 183 185 186 187 188 190 193 194 197 203 212 221 230 244 261 277 290 299 301 298 310 325 321 312 317 319 318 316 311 308 306 302 302 301 299 299 298 296 296 297 296 296 296 297 298 296 295 293 290 288 286 282 281 281 276 270 268 265 265 268 269 267 266 265 261 261 263 260 254 253 256 257 259 259 259
180 178 176 176 177 178 179 180 181 181 182 184 184 185 186 188 190 192 198 206 213 221 229 243 263 288 303 310 311 299 302 315 316 312 318 321 319 318 314 309 307 305 305 304 303 303 301 300 301 300 299 299 300 300 300 298 296 293 289 287 283 280 280 281 278 274 271 267 266 267 267 264 264 263 260 260 263 260 252 250 253 254 256 257 253
177 174 173 173 175 176 177 178 180 181 182 181 181 183 185 186 188 191 198 205 209 219 226 237 265 302 317 311 309 300 298 306 311 315 319 321 321 320 315 310 308 307 307 307 306 306 305 304 304 303 303 303 302 301 301 300 298 295 291 286 281 281 281 277 273 273 272 271 271 270 269 265 260 257 256 257 258 256 251 248 247 247 249 250 245
172 170 170 171 172 173 175 178 179 180 181 180 180 182 181 183 187 189 194 199 206 219 229 238 263 298 306 297 297 301 303 308 312 316 319 320 322 321 315 311 309 309 309 308 307 306 307 307 307 306 306 305 303 303 304 303 301 298 294 289 285 284 283 277 271 270 268 267 269 270 269 267 260 254 254 256 255 253 249 246 244 243 242 240 235
169 169 169 169 171 172 174 177 178 179 180 180 179 179 178 180 185 186 189 197 208 220 228 235 245 269 287 290 294 302 308 314 316 317 319 320 321 320 315 312 312 312 310 308 307 307 307 307 306 306 307 307 306 306 306 305 304 301 297 294 292 293 292 284 272 265 263 262 264 266 266 264 258 252 251 252 251 251 248 247 245 242 239 237 237
168 167 167 167 169 171 173 175 177 177 178 178 176 175 177 179 181 183 186 191 203 217 218 220 232 255 283 294 304 309 314 319 319 318 321 321 320 320 317 314 315 315 311 308 307 307 307 307 306 308 309 308 308 308 308 307 307 305 302 301 301 304 305 296 274 258 258 260 261 263 264 261 257 253 251 249 249 251 250 248 248 244 241 241 242
164 163 164 163 165 168 170 173 175 174 175 175 172 171 175 178 179 182 182 182 195 213 213 211 218 237 291 303 313 320 322 322 319 319 322 322 321 322 320 319 319 317 312 309 306 306 307 308 310 311 311 310 310 310 310 309 308 308 308 309 310 311 313 309 289 267 259 259 260 262 264 263 259 254 252 250 251 254 254 251 250 247 244 243 243
161 160 160 161 163 165 167 170 173 173 174 175 174 173 174 175 178 181 179 180 195 208 205 199 195 195 311 314 319 324 324 323 322 322 323 323 324 324 323 322 322 319 316 312 308 308 311 312 313 313 312 312 314 313 311 309 309 311 312 313 313 313 314 317 310 295 278 267 262 261 263 264 261 256 253 250 249 252 256 255 253 248 242 241 242
159 158 158 160 163 164 163 165 169 172 174 175 175 174 173 173 176 180 178 179 191 200 198 190 173 140 330 315 321 325 324 325 324 321 320 324 327 329 327 326 324 321 318 315 314 316 317 316 316 316 316 317 317 316 313 311 311 313 314 313 313 314 315 317 315 309 301 290 280 271 264 263 263 260 254 248 244 246 249 252 252 247 236 232 235
157 157 158 158 160 162 163 164 166 169 172 173 172 173 175 176 177 177 176 178 187 193 191 179 153 126 331 318 326 326 322 324 323 319 323 330 332 331 331 329 328 325 321 321 324 325 322 319 321 321 321 322 320 318 316 314 314 315 315 315 314 313 313 313 309 304 301 298 295 290 279 268 263 260 253 245 241 243 245 245 247 245 234 228 229
158 157 158 158 159 162 164 166 167 167 170 172 171 173 177 178 178 179 178 178 182 186 182 163 144 136 317 317 324 323 321 320 320 323 331 336 335 335 335 334 332 329 327 329 332 331 325 323 326 327 327 327 325 324 322 320 317 317 318 318 318 314 313 313 309 305 303 302 302 304 298 284 268 258 252 246 242 244 246 243 242 244 238 231 227
157 156 157 158 159 161 163 165 166 167 168 169 170 175 179 177 175 176 176 173 176 183 178 154 141 139 223 292 308 318 315 313 320 329 336 337 338 338 338 337 335 332 332 335 337 335 334 334 334 333 332 331 329 329 328 326 323 321 321 323 322 319 317 316 312 308 309 309 307 305 303 298 283 263 251 247 246 246 245 243 243 244 239 234 231
155 156 157 158 158 159 161 163 165 167 167 166 168 174 177 174 171 171 171 172 180 182 164 141 132 138 174 262 298 302 305 314 326 336 341 341 342 342 340 339 337 336 338 343 343 339 338 337 335 334 334 332 330 328 327 328 326 324 324 326 326 324 321 317 313 311 311 310 307 303 301 303 300 283 259 245 246 249 247 243 244 243 238 233 234
153 156 158 158 159 161 162 162 164 166 168 168 169 168 167 168 173 175 172 173 176 165 140 121 110 108 121 72 328 312 314 326 337 344 347 348 348 346 342 341 343 344 347 350 348 343 339 335 332 333 333 331 330 327 324 324 324 324 324 325 326 326 324 320 317 315 313 309 307 307 307 307 309 303 284 258 246 247 247 245 241 239 236 233 231
155 158 161 162 162 163 163 162 163 164 166 169 168 164 160 161 169 178 180 176 168 150 122 101 88 82 86 72 21 344 336 341 349 354 355 354 353 350 346 347 350 353 354 354 349 343 340 335 329 328 329 328 327 324 321 320 321 323 322 321 323 324 323 321 319 316 314 312 309 311 312 309 308 308 302 285 262 245 241 244 242 236 235 235 234
160 161 162 162 162 162 162 162 163 164 166 168 167 163 160 159 162 169 175 174 167 152 123 97 88 84 77 59 28 7 357 358 0 1 1 360 357 355 355 357 359 359 360 358 349 341 339 334 328 325 325 324 323 321 320 319 320 322 320 317 317 318 319 319 318 314 314 314 312 310 311 309 307 306 305 300 285 258 237 237 241 239 234 235 237
165 165 165 163 162 162 163 163 163 164 166 167 166 164 164 164 161 162 165 167 168 162 140 116 113 107 93 63 26 11 8 10 9 7 6 3 359 359 4 9 9 7 6 1 350 340 335 330 325 322 321 321 321 320 317 315 316 318 319 316 313 315 319 320 318 315 317 317 313 309 308 307 306 304 302 303 300 282 252 234 233 235 235 234 238
166 165 165 163 162 162 163 163 162 162 163 164 163 161 161 161 159 160 163 164 162 158 145 128 122 114 106 74 28 14 12 14 13 11 9 5 1 4 11 12 8 3 1 357 348 340 330 321 319 319 319 318 317 316 314 312 313 316 318 315 313 316 321 320 317 317 320 319 315 311 309 306 303 300 297 296 296 293 277 251 233 228 230 233 238
162 160 160 161 160 160 161 161 160 161 161 160 157 156 155 155 155 157 158 155 149 145 136 122 115 115 111 82 48 40 32 21 15 14 12 8 6 12 16 11 358 350 349 347 344 337 326 320 318 318 317 315 315 315 314 312 311 315 318 316 314 317 323 323 320 320 321 319 316 312 308 303 299 297 296 293 289 290 290 279 256 236 229 231 234
159 157 159 161 160 158 158 158 158 159 158 155 153 152 151 151 151 149 145 141 133 125 114 103 98 100 80 43 42 56 44 25 17 15 13 11 13 16 16 8 353 345 341 338 337 332 326 324 324 324 324 324 319 316 315 312 309 314 320 318 313 315 324 327 324 321 320 318 317 313 307 301 297 295 293 292 290 289 290 288 277 254 236 234 233
162 161 161 161 159 157 156 155 156 156 154 151 152 151 149 149 147 142 137 132 124 117 112 103 89 76 45 22 27 38 31 18 11 9 9 11 12 13 10 3 354 346 339 337 337 334 329 329 329 330 333 333 328 321 316 314 311 315 320 318 309 311 325 330 327 324 323 321 318 314 308 302 297 294 290 287 287 287 286 285 284 270 245 236 234
161 160 159 158 157 157 156 154 154 154 151 149 150 151 150 149 146 143 141 138 132 129 130 118 91 73 52 34 30 27 19 10 5 4 6 8 9 8 4 359 352 345 340 339 340 337 332 331 332 333 334 336 336 331 323 317 313 315 319 317 308 314 328 333 329 327 327 324 319 315 310 303 298 295 291 285 282 282 280 279 279 274 261 239 230
156 154 155 156 155 155 156 155 153 152 151 151 151 152 154 154 152 150 149 146 144 147 147 139 130 127 101 60 34 16 3 360 1 1 2 5 5 5 2 356 350 344 341 339 339 338 333 331 332 333 333 335 338 337 333 327 323 323 323 317 311 320 332 333 331 331 330 325 321 318 311 306 303 301 295 288 284 281 279 277 275 273 267 251 236
153 152 154 155 155 154 154 154 153 152 153 154 155 156 158 157 155 154 152 149 151 153 150 147 148 141 114 75 36 6 350 6 13 10 8 6 3 2 360 354 348 345 341 339 340 340 337 333 333 333 332 334 337 339 338 335 333 333 330 322 316 326 334 334 334 335 332 327 325 322 316 312 311 306 299 294 291 286 281 278 275 272 268 255 239
154 153 154 155 155 155 154 153 153 153 154 155 157 159 158 156 155 154 152 151 152 151 147 148 149 137 119 99 72 41 44 43 34 24 18 13 7 2 359 355 351 348 344 342 342 340 337 335 335 334 333 334 336 339 339 337 336 336 333 326 324 334 338 337 336 336 334 330 329 326 321 319 315 308 301 297 293 288 284 279 274 271 270 257 237
156 155 155 156 157 156 154 153 152 152 153 156 158 158 156 155 154 154 153 152 152 149 148 150 147 131 118 113 111 95 64 52 42 30 22 16 10 4 360 356 354 353 351 349 348 344 339 337 336 335 335 336 338 340 341 340 339 338 335 329 331 340 343 340 338 338 335 332 330 327 324 321 316 309 302 296 291 287 284 280 276 276 274 258 231
154 152 153 153 153 152 152 153 153 153 155 156 156 154 154 154 154 153 153 152 151 150 150 148 139 124 114 109 103 82 61 51 42 32 25 18 11 5 360 357 356 357 355 355 355 352 347 343 340 339 340 342 344 345 345 344 343 342 337 331 333 342 345 344 341 339 337 333 330 326 324 321 315 309 303 298 296 294 290 286 284 282 275 255 224
152 151 151 150 150 151 151 153 154 154 154 153 151 151 153 155 154 153 153 152 150 151 151 143 130 119 112 103 89 72 58 49 40 33 26 18 11 5 0 358 359 359 357 357 358 356 353 349 345 343 343 345 347 347 346 346 347 346 342 336 336 342 346 345 342 339 339 336 331 326 323 320 316 313 312 309 306 303 298 291 289 287 277 252 212
153 153 152 151 150 150 151 153 155 155 154 152 151 151 153 155 155 154 154 153 153 154 150 138 126 118 110 97 81 66 56 47 38 32 26 18 10 5 1 359 359 359 358 358 358 358 356 354 351 348 347 347 347 347 347 348 349 350 348 343 341 345 348 348 345 343 342 341 336 330 326 323 318 318 320 318 313 308 302 295 290 285 273 245 204
153 152 152 152 150 150 152 155 156 155 154 153 153 153 154 155 156 156 156 155 155 154 147 136 126 118 108 95 79 64 54 45 37 31 25 17 9 4 360 358 357 357 358 359 360 360 359 358 357 354 352 350 349 347 348 350 351 351 349 346 346 348 351 351 349 348 346 344 341 337 333 329 324 323 324 323 319 313 308 302 297 290 275 243 201
152 152 152 152 151 151 153 155 155 155 154 154 154 155 156 156 156 158 157 157 156 153 145 135 128 120 106 92 77 63 54 45 35 28 22 15 8 3 359 355 354 355 356 358 0 1 0 0 0 359 357 354 351 348 349 352 353 351 349 347 347 349 353 354 353 352 350 348 346 345 342 338 334 332 330 326 322 319 312 306 304 299 285 250 202
154 153 153 153 154 154 155 157 156 156 155 155 154 155 156 157 158 158 157 157 157 153 144 136 131 123 108 94 80 65 54 43 33 25 18 11 5 0 357 354 353 353 354 356 359 0 0 1 2 1 360 357 353 351 353 355 355 351 349 347 347 350 355 357 356 355 355 353 350 350 349 346 342 340 338 334 329 325 318 311 308 306 297 270 214
155 156 156 156 156 157 158 158 157 157 157 157 156 157 158 159 158 158 159 160 158 152 146 141 135 123 110 96 81 64 51 40 29 20 14 8 2 358 355 354 353 352 353 355 357 359 359 0 1 2 2 360 357 356 357 359 356 351 348 347 348 351 356 358 358 359 359 357 355 354 353 351 349 348 346 343 339 334 328 321 316 316 316 306 245
156 157 157 158 158 158 158 157 157 157 159 160 160 160 160 157 157 161 164 164 160 155 150 145 139 128 113 97 81 65 51 38 25 15 10 6 1 357 355 355 353 352 352 352 354 356 358 359 0 1 1 0 360 0 1 1 357 351 349 348 349 352 357 359 359 0 1 360 359 358 357 356 355 353 350 347 343 339 335 330 325 325 333 338 332